{"data":{"norad_id":48270,"epoch":"2026-09-20T08:57:42.687936Z","epoch_age_seconds":98464,"freshness":"FRESH","line1":"1 48270U 21034C   26263.37341074  .00002907  00000+0  21431-3 0  9990","line2":"2 48270  97.5511 316.1040 0004681 308.3208  51.7597 15.04076253293921","mean_motion":15.04076253,"eccentricity":0.0004681,"inclination_deg":97.5511,"raan_deg":316.104,"arg_perigee_deg":308.3208,"mean_anomaly_deg":51.7597,"bstar":0.00021431,"rev_number":29392,"period_min":95.739826829112,"perigee_km":551.09758181298,"apogee_km":557.58776928522,"semimajor_km":6932.4796755491,"source":"CELESTRAK","updated_at":"2026-09-21T09:00:07.705794Z"}}